TimeEDT,TemperatureF,Dew PointF,Humidity,Sea Level PressureIn,VisibilityMPH,Wind Direction,Wind SpeedMPH,Gust SpeedMPH,PrecipitationIn,Events,Conditions,WindDirDegrees,DateUTC
12:52 AM,55.0,48.0,77,30.09,10.0,Calm,Calm,-,N/A,,Clear,0,2013-09-07 04:52:00
1:52 AM,53.1,48.0,83,30.09,10.0,Calm,Calm,-,N/A,,Clear,0,2013-09-07 05:52:00
2:52 AM,53.1,46.0,77,30.08,10.0,Calm,Calm,-,N/A,,Clear,0,2013-09-07 06:52:00
3:52 AM,55.0,46.0,72,30.07,10.0,Calm,Calm,-,N/A,,Clear,0,2013-09-07 07:52:00
4:52 AM,55.0,46.0,72,30.06,10.0,Calm,Calm,-,N/A,,Clear,0,2013-09-07 08:52:00
5:52 AM,54.0,46.9,77,30.05,10.0,Calm,Calm,-,N/A,,Clear,0,2013-09-07 09:52:00
6:52 AM,55.0,48.0,77,30.05,10.0,Calm,Calm,-,N/A,,Mostly Cloudy,0,2013-09-07 10:52:00
7:52 AM,57.9,48.9,72,30.05,10.0,SW,3.5,-,N/A,,Partly Cloudy,220,2013-09-07 11:52:00
8:52 AM,61.0,50.0,67,30.04,10.0,SSW,4.6,-,N/A,,Partly Cloudy,210,2013-09-07 12:52:00
9:52 AM,66.9,53.1,61,30.03,10.0,SW,9.2,-,N/A,,Clear,230,2013-09-07 13:52:00
10:52 AM,72.0,57.0,59,30.02,10.0,WSW,9.2,-,N/A,,Mostly Cloudy,240,2013-09-07 14:52:00
11:52 AM,75.9,61.0,60,30.01,10.0,SW,6.9,-,N/A,,Partly Cloudy,230,2013-09-07 15:52:00
12:52 PM,81.0,62.1,52,30.00,10.0,WSW,9.2,-,N/A,,Clear,250,2013-09-07 16:52:00
1:52 PM,82.9,62.1,49,29.99,10.0,West,6.9,-,N/A,,Partly Cloudy,260,2013-09-07 17:52:00
2:52 PM,82.9,61.0,47,29.96,10.0,West,9.2,-,N/A,,Mostly Cloudy,270,2013-09-07 18:52:00
3:52 PM,73.0,66.9,81,29.94,7.0,SSW,3.5,-,0.01,Rain,Light Rain,200,2013-09-07 19:52:00
4:52 PM,75.9,69.1,79,29.94,10.0,Calm,Calm,-,0.00,,Partly Cloudy,0,2013-09-07 20:52:00
5:52 PM,77.0,64.9,66,29.93,10.0,Calm,Calm,-,N/A,,Scattered Clouds,0,2013-09-07 21:52:00
6:52 PM,73.9,66.9,79,29.92,10.0,Calm,Calm,-,N/A,,Clear,0,2013-09-07 22:52:00
7:52 PM,73.0,66.0,79,29.91,10.0,Calm,Calm,-,N/A,,Mostly Cloudy,0,2013-09-07 23:52:00
8:52 PM,70.0,66.0,87,29.92,10.0,Calm,Calm,-,N/A,,Scattered Clouds,0,2013-09-08 00:52:00
9:52 PM,69.1,66.0,90,29.92,8.0,Calm,Calm,-,N/A,,Clear,0,2013-09-08 01:52:00
10:52 PM,71.1,64.9,81,29.93,9.0,NW,3.5,-,N/A,,Overcast,320,2013-09-08 02:52:00
11:52 PM,70.0,64.0,81,29.94,10.0,WSW,4.6,-,N/A,,Overcast,250,2013-09-08 03:52:00